Preview of NWS' New Version of Forecast
This preview is not operational and should not be used for support decisions.

Regional Weather Roundup (RWR)

Issued by National Weather Service (NWS)

                            
000
ASPQ40 PGUM 241010
RWRPQ 
WEATHER ROUNDUP FOR THE MARIANAS AND MICRONESIA
NATIONAL WEATHER SERVICE TIYAN GU
800 PM CHST MON JUN 24 2019

GUZ001>004-241100-
MARIANA ISLANDS-
  
CITY           SKY/WX    TMP DP  RH WIND       PRES   REMARKS
GUAM AIRPORT   CLEAR     82  75  78 E9        29.93R                  
ANDERSEN AFB   PTCLDY    81  75  83 E12       29.94R                  
ROTA AIRPORT   PTCLDY    81  73  78 E14       29.92R                  
TINIAN AP      PTCLDY    82  77  83 E12       29.91R HX  91           
SAIPAN AP      CLEAR     82  75  78 E16       29.92R                  

$$

PMZ161-241100-
REPUBLIC OF PALAU-
  
CITY           SKY/WX    TMP DP  RH WIND       PRES   REMARKS
KOROR AP       MOCLDY    79  72  78 W7        29.85R                  
KOROR WSO      NOT AVBL                                               

$$

PMZ171>174-241100-
FEDERATED STATES OF MICRONESIA-
  
CITY           SKY/WX    TMP DP  RH WIND       PRES   REMARKS
YAP AIRPORT    CLOUDY    81  77  89 VRB7      29.87R                  
CHUUK AP       MOCLDY    82  77  83 VRB6      29.84S HX  91           
POHNPEI AP     NOT AVBL                                               
POHNPEI WSO    CLOUDY    81  75  83 SE6       29.89                   
KOSRAE AP      NOT AVBL                                               

$$

PMZ181-241100-
REPUBLIC OF THE MARSHALL ISLANDS-
  
CITY           SKY/WX    TMP DP  RH WIND       PRES   REMARKS
KWAJALEIN AP   LGT RAIN  79  79 100 NE10      29.91R                  
MAJURO AP      SHOWER    81  77  89 NW10      29.94R VSB 1            
MAJURO WSO     LGT RAIN  79  75  89 E8        29.93R                  

$$